Рыбинское водохранилище

Россия / Ярославская область     58°23′24″N   38°25′48″E
темп.,
°C
ветер,
м/с
пор.,
м/с
влажн.,
%
обл.,
%
осадки,
мм/ч
давл.,
гПа
погр.,
м
7 мая, пт
пт700:00+5ююз9148887 0.1 1003141
03:00+4ю71091100 0.1 100487
06:00+4ююз71091100 0.1 1005100
09:00+4ююз448598 0.2 100635
12:00+5ююз557980 0.1 100834
15:00+5ююз337241 0.3 100813
18:00+6юз57704 0.3 100944
21:00+6ю68755 0.3 101045
8 мая, сб
сб800:00+5ю798592 0.0 101172
03:00+4ююв7987100 0.0 101178
06:00+4юв81281100 0.0 1009112
09:00+5юв91376100 0.0 1009114
12:00+5ююв81490100 1.6 1007137
15:00+5ююв111796100 6.8 1007217
18:00+5юв6998100 5.3 100579
21:00+4юв5599100 9.2 100431
9 мая, вс
вс900:00+3сз101299100 2.2 1004181
03:00+3сз111594100 3.0 1005390
06:00+3сз111591100 1.9 1007474
09:00+3сз101486100 2.0 1010404
12:00+4сз81183100 0.0 1013164
15:00+5сз3473100 0.0 101527
18:00+6сз556822 0.0 101729
21:00+5сз44715 0.0 102018
10 мая, пн
пн1000:00+4зсз56780 0.0 102350
03:00+3зсз33805 0.0 102522
06:00+3ююз338088 0.0 102725
09:00+4ю567854 0.0 102840
12:00+6ю556994 0.0 102728
15:00+6юз4478100 0.1 102816
18:00+7ю557531 0.0 102721
21:00+7ююз66845 0.0 102832
11 мая, вт
вт1100:00+6ююз558861 0.0 102932
03:00+5юз3492100 0.0 102915
06:00+5юз449394 0.0 103013
09:00+6ююз448965 0.0 103111
12:00+9ю3379100 0.0 103111
15:00+10ю447333 0.0 103011
18:00+11ю44725 0.0 103011
21:00+10ююз668296 0.0 102919